| time (UTC) | temp F | wind direction | speed MPH | gust MPH | rain 1hr in | rain 24hr in | rain mn in | humidity % | barometer mb |
| 20260506073056 | 45 | 89 | 1.0 | 3.0 | 0.00 | 0.00 | 0.00 | 66 | 1009.0 |
| 20260506072553 | 45 | 121 | 0.0 | 2.0 | 0.00 | 0.00 | 0.00 | 65 | 1009.1 |
| 20260506072051 | 45 | 97 | 2.0 | 2.0 | 0.00 | 0.00 | 0.00 | 64 | 1009.0 |
| 20260506071548 | 46 | 69 | 1.0 | 2.0 | 0.00 | 0.00 | 0.00 | 64 | 1008.8 |
| 20260506071046 | 46 | 30 | 0.0 | 4.0 | 0.00 | 0.00 | 0.00 | 63 | 1008.9 |
| 20260506070543 | 46 | 304 | 0.0 | 3.0 | 0.00 | 0.00 | 0.00 | 63 | 1008.8 |
| 20260506062017 | 47 | 129 | 0.0 | 3.0 | 0.00 | 0.00 | 0.00 | 60 | 1008.9 |
| 20260506061513 | 47 | 346 | 1.0 | 5.0 | 0.00 | 0.00 | 0.00 | 60 | 1008.9 |
| 20260506061010 | 47 | 48 | 0.0 | 2.0 | 0.00 | 0.00 | 0.00 | 60 | 1009.1 |
| 20260506060509 | 47 | 92 | 3.0 | 3.0 | 0.00 | 0.00 | 0.00 | 60 | 1009.1 |
| 20260506050938 | 47 | 176 | 1.0 | 5.0 | 0.00 | 0.00 | 0.00 | 59 | 1008.6 |
| 20260506050435 | 47 | 311 | 4.0 | 5.0 | 0.00 | 0.00 | 0.00 | 60 | 1008.7 |
| 20260506044925 | 48 | 38 | 1.0 | 5.0 | 0.00 | 0.00 | 0.00 | 59 | 1008.8 |
| 20260506044424 | 48 | 139 | 3.0 | 3.0 | 0.00 | 0.00 | 0.00 | 59 | 1009.1 |
| 20260506043920 | 48 | 315 | 0.0 | 3.0 | 0.00 | 0.00 | 0.00 | 58 | 1008.8 |
| 20260506043418 | 48 | 33 | 2.0 | 4.0 | 0.00 | 0.00 | 0.00 | 57 | 1008.7 |
| 20260506042915 | 48 | 19 | 0.0 | 4.0 | 0.00 | 0.00 | 0.00 | 58 | 1008.6 |
| 20260506042415 | 48 | 298 | 1.0 | 6.0 | 0.00 | 0.00 | 0.00 | 58 | 1008.7 |
| 20260506041912 | 48 | 119 | 2.0 | 3.0 | 0.00 | 0.00 | 0.00 | 57 | 1008.6 |
| 20260506041410 | 48 | 340 | 1.0 | 3.0 | 0.00 | 0.00 | 0.00 | 57 | 1008.7 |
| 20260506040907 | 48 | 113 | 0.0 | 3.0 | 0.00 | 0.00 | 0.00 | 57 | 1008.6 |
| 20260506040404 | 48 | 83 | 1.0 | 3.0 | 0.00 | 0.00 | 0.00 | 59 | 1008.8 |
| 20260506035900 | 48 | 110 | 0.0 | 2.0 | 0.00 | 0.00 | 0.00 | 58 | 1008.6 |
| 20260506035358 | 48 | 83 | 2.0 | 3.0 | 0.00 | 0.00 | 0.00 | 57 | 1008.7 |
| 20260506034854 | 48 | 115 | 2.0 | 3.0 | 0.00 | 0.00 | 0.00 | 57 | 1008.6 |
| 20260506034352 | 48 | 124 | 0.0 | 2.0 | 0.00 | 0.00 | 0.00 | 57 | 1008.7 |
| 20260506033849 | 48 | 18 | 2.0 | 3.0 | 0.00 | 0.00 | 0.00 | 57 | 1008.8 |
| 20260506033346 | 48 | 75 | 0.0 | 2.0 | 0.00 | 0.00 | 0.00 | 60 | 1008.6 |
| 20260506032843 | 48 | 36 | 1.0 | 2.0 | 0.00 | 0.00 | 0.00 | 59 | 1008.6 |
| 20260506032339 | 48 | 131 | 2.0 | 3.0 | 0.00 | 0.00 | 0.00 | 60 | 1008.5 |
| 20260506031836 | 48 | 140 | 2.0 | 3.0 | 0.00 | 0.00 | 0.00 | 60 | 1008.8 |
| 20260506031333 | 48 | 149 | 1.0 | 2.0 | 0.00 | 0.00 | 0.00 | 59 | 1008.7 |
| 20260506030831 | 48 | 170 | 1.0 | 3.0 | 0.00 | 0.00 | 0.00 | 59 | 1008.9 |
| 20260506030329 | 48 | 129 | 0.0 | 2.0 | 0.00 | 0.00 | 0.00 | 59 | 1008.7 |
| 20260506025825 | 48 | 143 | 1.0 | 3.0 | 0.00 | 0.00 | 0.00 | 59 | 1008.7 |
| 20260506025322 | 48 | 139 | 2.0 | 2.0 | 0.00 | 0.00 | 0.00 | 59 | 1008.6 |
| 20260506024819 | 48 | 119 | 0.0 | 2.0 | 0.00 | 0.00 | 0.00 | 58 | 1008.5 |
| 20260506024316 | 48 | 155 | 0.0 | 2.0 | 0.00 | 0.00 | 0.00 | 57 | 1008.6 |
| 20260506023812 | 48 | 152 | 2.0 | 3.0 | 0.00 | 0.00 | 0.00 | 57 | 1008.6 |
| 20260506023309 | 48 | 160 | 0.0 | 4.0 | 0.00 | 0.00 | 0.00 | 57 | 1008.6 |
| 20260506022805 | 48 | 148 | 2.0 | 3.0 | 0.00 | 0.00 | 0.00 | 57 | 1008.7 |
| 20260506022305 | 48 | 129 | 0.0 | 2.0 | 0.00 | 0.00 | 0.00 | 57 | 1008.5 |
| 20260506021801 | 48 | 110 | 2.0 | 3.0 | 0.00 | 0.00 | 0.00 | 57 | 1008.4 |
| 20260506021258 | 49 | 141 | 0.0 | 3.0 | 0.00 | 0.00 | 0.00 | 57 | 1008.3 |
| 20260506020755 | 49 | 157 | 0.0 | 4.0 | 0.00 | 0.00 | 0.00 | 55 | 1008.7 |
| 20260506020253 | 49 | 139 | 2.0 | 3.0 | 0.00 | 0.00 | 0.00 | 56 | 1008.7 |
| 20260506015750 | 49 | 157 | 1.0 | 3.0 | 0.00 | 0.00 | 0.00 | 56 | 1008.6 |
| 20260506015247 | 49 | 135 | 0.0 | 3.0 | 0.00 | 0.00 | 0.00 | 55 | 1008.5 |
| 20260506014744 | 49 | 174 | 0.0 | 3.0 | 0.00 | 0.00 | 0.00 | 55 | 1008.3 |
| 20260506014241 | 49 | 121 | 2.0 | 3.0 | 0.00 | 0.00 | 0.00 | 55 | 1008.1 |
| 20260506013738 | 49 | 133 | 1.0 | 3.0 | 0.00 | 0.00 | 0.00 | 54 | 1008.2 |
| 20260506013235 | 50 | 96 | 1.0 | 2.0 | 0.00 | 0.00 | 0.00 | 53 | 1008.0 |
| 20260506012731 | 50 | 62 | 0.0 | 3.0 | 0.00 | 0.00 | 0.00 | 52 | 1008.2 |
| 20260506012228 | 50 | 343 | 1.0 | 2.0 | 0.00 | 0.00 | 0.00 | 51 | 1008.0 |
| 20260506011726 | 50 | 157 | 0.0 | 4.0 | 0.00 | 0.00 | 0.00 | 51 | 1008.1 |
| 20260506011221 | 50 | 44 | 0.0 | 3.0 | 0.00 | 0.00 | 0.00 | 51 | 1007.9 |
| 20260506010720 | 50 | 89 | 0.0 | 3.0 | 0.00 | 0.00 | 0.00 | 50 | 1008.0 |